Tracking 20092 objects as of 13-Dec-2019
HD Live streaming from Space Station
objects crossing your sky now

METEOR 2-17 DEB

Track METEOR 2-17 DEB now!
10-day predictions


NORAD ID: 28992
Int'l Code: 1988-005G
Perigee: 927.2 km
Apogee: 933.6 km
Inclination: 82.5 °
Period: 103.5 minutes
Semi major axis: 7301 km
RCS: 0.0128 m2 (small)
Launch date: January 30, 1988
Source: Commonwealth of Independent States (former USSR) (CIS)
Launch site: PLESETSK MISSILE AND SPACE COMPLEX (PKMTR)

Note: This is SATELLITE DEBRIS
aabbcc
Your satellite tracking list
Your tracking list is empty




NASA's NSSDC Master Catalog

Two Line Element Set (TLE):
1 28992U 88005G   19346.45795352  .00000514  00000-0  39446-3 0  9993
2 28992  82.5387  45.0825 0004394 231.2956 142.0005 13.91535940727465
Source of the keplerian elements: AFSPC